Time,TemperatureF,DewpointF,PressureIn,WindDirection,WindDirectionDegrees,WindSpeedMPH,WindSpeedGustMPH,Humidity,HourlyPrecipIn,Conditions,Clouds,dailyrainin,SoftwareType,DateUTC
2013-05-10 00:01:00,58.6,54.1,29.94,WSW,257,0.0,3.0,85,0.00,,---,0.07,VWS V14.01,2013-05-10 04:01:00,
2013-05-10 00:06:00,58.5,54.3,29.94,SW,228,1.0,1.0,86,0.00,,---,0.00,VWS V14.01,2013-05-10 04:06:00,
2013-05-10 00:11:00,58.8,54.6,29.94,WSW,239,0.0,1.0,86,0.00,,---,0.00,VWS V14.01,2013-05-10 04:11:00,
2013-05-10 00:16:00,58.9,54.4,29.95,WSW,239,0.0,1.0,85,0.00,,---,0.00,VWS V14.01,2013-05-10 04:16:00,
2013-05-10 00:21:00,59.0,54.8,29.95,WSW,239,0.0,1.0,86,0.00,,---,0.00,VWS V14.01,2013-05-10 04:21:00,
2013-05-10 00:26:00,59.1,54.6,29.95,WSW,239,0.0,1.0,85,0.00,,---,0.00,VWS V14.01,2013-05-10 04:26:00,
2013-05-10 00:31:00,59.0,54.5,29.95,WSW,239,0.0,1.0,85,0.00,,---,0.00,VWS V14.01,2013-05-10 04:31:00,
2013-05-10 00:36:00,58.8,54.3,29.95,WSW,239,0.0,0.0,85,0.00,,---,0.00,VWS V14.01,2013-05-10 04:36:00,
2013-05-10 00:41:00,58.5,54.0,29.95,WSW,239,0.0,0.0,85,0.00,,---,0.00,VWS V14.01,2013-05-10 04:41:00,
2013-05-10 00:46:00,58.3,54.1,29.95,WSW,240,0.0,0.0,86,0.00,,---,0.00,VWS V14.01,2013-05-10 04:46:00,
2013-05-10 00:51:00,58.3,54.5,29.95,WSW,239,0.0,0.0,87,0.00,,---,0.00,VWS V14.01,2013-05-10 04:51:00,
2013-05-10 00:56:00,58.2,54.4,29.95,WSW,239,0.0,1.0,87,0.00,,---,0.00,VWS V14.01,2013-05-10 04:56:00,
2013-05-10 01:01:00,57.9,54.1,29.95,WSW,239,0.0,1.0,87,0.00,,---,0.00,VWS V14.01,2013-05-10 05:01:00,
2013-05-10 01:06:00,57.6,54.1,29.94,WSW,240,0.0,0.0,88,0.00,,---,0.00,VWS V14.01,2013-05-10 05:06:00,
2013-05-10 01:11:00,57.6,54.1,29.94,WSW,239,0.0,0.0,88,0.00,,---,0.00,VWS V14.01,2013-05-10 05:11:00,
2013-05-10 01:17:00,57.7,54.2,29.94,WSW,243,0.0,0.0,88,0.00,,---,0.00,VWS V14.01,2013-05-10 05:17:00,
2013-05-10 01:22:00,57.5,53.7,29.95,WSW,243,0.0,0.0,87,0.00,,---,0.00,VWS V14.01,2013-05-10 05:22:00,
2013-05-10 01:27:00,57.2,53.4,29.95,WSW,243,0.0,0.0,87,0.00,,---,0.00,VWS V14.01,2013-05-10 05:27:00,
2013-05-10 01:32:00,57.0,53.5,29.95,WSW,243,0.0,0.0,88,0.00,,---,0.00,VWS V14.01,2013-05-10 05:32:00,
2013-05-10 01:37:00,56.7,53.5,29.94,WSW,243,0.0,0.0,89,0.00,,---,0.00,VWS V14.01,2013-05-10 05:37:00,
2013-05-10 01:42:00,56.7,53.5,29.94,SSE,153,0.0,0.0,89,0.00,,---,0.00,VWS V14.01,2013-05-10 05:42:00,
2013-05-10 01:47:00,56.8,53.9,29.94,ESE,112,0.0,0.0,90,0.00,,---,0.00,VWS V14.01,2013-05-10 05:47:00,
2013-05-10 01:52:00,56.7,53.8,29.94,ESE,111,0.0,0.0,90,0.00,,---,0.00,VWS V14.01,2013-05-10 05:52:00,
2013-05-10 01:57:00,56.7,53.8,29.94,ESE,112,0.0,0.0,90,0.00,,---,0.00,VWS V14.01,2013-05-10 05:57:00,
2013-05-10 02:02:00,56.7,53.8,29.94,ESE,112,0.0,0.0,90,0.00,,---,0.00,VWS V14.01,2013-05-10 06:02:00,
2013-05-10 02:07:00,56.5,53.6,29.94,ESE,112,0.0,0.0,90,0.00,,---,0.00,VWS V14.01,2013-05-10 06:07:00,
2013-05-10 02:12:00,56.4,53.5,29.94,WNW,287,0.0,0.0,90,0.00,,---,0.00,VWS V14.01,2013-05-10 06:12:00,
2013-05-10 02:17:00,56.5,53.9,29.94,North,4,0.0,0.0,91,0.00,,---,0.00,VWS V14.01,2013-05-10 06:17:00,
2013-05-10 02:22:00,56.6,54.0,29.94,ENE,64,0.0,0.0,91,0.00,,---,0.00,VWS V14.01,2013-05-10 06:22:00,
2013-05-10 02:27:00,56.8,54.2,29.94,ENE,63,0.0,0.0,91,0.00,,---,0.00,VWS V14.01,2013-05-10 06:27:00,
2013-05-10 02:32:00,56.6,54.0,29.94,ENE,64,0.0,0.0,91,0.00,,---,0.00,VWS V14.01,2013-05-10 06:32:00,
2013-05-10 02:37:00,56.3,53.7,29.94,ENE,63,0.0,0.0,91,0.00,,---,0.00,VWS V14.01,2013-05-10 06:37:00,
2013-05-10 02:42:00,56.3,53.7,29.94,ENE,63,0.0,0.0,91,0.00,,---,0.00,VWS V14.01,2013-05-10 06:42:00,
2013-05-10 02:47:00,56.2,53.6,29.95,ENE,64,0.0,0.0,91,0.00,,---,0.00,VWS V14.01,2013-05-10 06:47:00,
2013-05-10 02:52:00,56.1,53.5,29.95,ENE,63,0.0,0.0,91,0.00,,---,0.00,VWS V14.01,2013-05-10 06:52:00,
2013-05-10 02:57:00,56.0,53.4,29.96,West,276,0.0,0.0,91,0.00,,---,0.00,VWS V14.01,2013-05-10 06:57:00,
2013-05-10 03:02:00,56.0,53.7,29.95,West,276,0.0,0.0,92,0.00,,---,0.00,VWS V14.01,2013-05-10 07:02:00,
2013-05-10 03:07:00,56.1,53.8,29.95,West,272,0.0,0.0,92,0.00,,---,0.00,VWS V14.01,2013-05-10 07:07:00,
2013-05-10 03:12:00,56.1,53.8,29.95,West,273,0.0,0.0,92,0.00,,---,0.00,VWS V14.01,2013-05-10 07:12:00,
2013-05-10 03:17:00,56.0,53.7,29.96,West,272,0.0,0.0,92,0.00,,---,0.00,VWS V14.01,2013-05-10 07:17:00,
2013-05-10 03:22:00,56.0,53.7,29.96,West,272,0.0,0.0,92,0.00,,---,0.00,VWS V14.01,2013-05-10 07:22:00,
2013-05-10 03:27:00,55.8,53.5,29.95,West,266,0.0,0.0,92,0.00,,---,0.00,VWS V14.01,2013-05-10 07:27:00,
2013-05-10 03:32:00,55.9,53.6,29.95,West,266,0.0,0.0,92,0.00,,---,0.00,VWS V14.01,2013-05-10 07:32:00,
2013-05-10 03:37:00,55.8,53.5,29.95,West,266,0.0,0.0,92,0.00,,---,0.00,VWS V14.01,2013-05-10 07:37:00,
2013-05-10 03:42:00,55.6,53.3,29.95,West,266,0.0,0.0,92,0.00,,---,0.00,VWS V14.01,2013-05-10 07:42:00,
2013-05-10 03:47:00,55.4,53.1,29.96,West,266,0.0,0.0,92,0.00,,---,0.00,VWS V14.01,2013-05-10 07:47:00,
2013-05-10 03:52:00,55.1,52.8,29.96,West,266,0.0,0.0,92,0.00,,---,0.00,VWS V14.01,2013-05-10 07:52:00,
2013-05-10 03:57:00,55.2,52.9,29.96,West,266,0.0,0.0,92,0.00,,---,0.00,VWS V14.01,2013-05-10 07:57:00,
2013-05-10 04:02:00,55.5,53.2,29.96,West,266,0.0,0.0,92,0.00,,---,0.00,VWS V14.01,2013-05-10 08:02:00,
2013-05-10 04:07:00,55.6,53.6,29.96,West,266,0.0,0.0,93,0.00,,---,0.00,VWS V14.01,2013-05-10 08:07:00,
2013-05-10 04:12:00,55.4,53.1,29.96,West,266,0.0,0.0,92,0.00,,---,0.00,VWS V14.01,2013-05-10 08:12:00,
2013-05-10 04:17:00,55.2,52.9,29.96,West,266,0.0,0.0,92,0.00,,---,0.00,VWS V14.01,2013-05-10 08:17:00,
2013-05-10 04:22:00,54.8,52.5,29.96,West,266,0.0,0.0,92,0.00,,---,0.00,VWS V14.01,2013-05-10 08:22:00,
2013-05-10 04:27:00,54.4,52.1,29.96,West,274,0.0,0.0,92,0.00,,---,0.00,VWS V14.01,2013-05-10 08:27:00,
2013-05-10 04:32:00,53.2,50.7,29.97,West,274,0.0,0.0,91,0.00,,---,0.00,VWS V14.01,2013-05-10 08:32:00,
2013-05-10 04:37:00,52.8,50.5,29.97,West,274,0.0,0.0,92,0.00,,---,0.00,VWS V14.01,2013-05-10 08:37:00,
2013-05-10 04:42:00,53.0,50.7,29.97,West,274,0.0,0.0,92,0.00,,---,0.00,VWS V14.01,2013-05-10 08:42:00,
2013-05-10 04:47:00,52.7,50.5,29.97,West,272,0.0,0.0,92,0.00,,---,0.00,VWS V14.01,2013-05-10 08:47:00,
2013-05-10 04:52:00,53.4,51.4,29.97,West,262,0.0,0.0,93,0.00,,---,0.00,VWS V14.01,2013-05-10 08:52:00,
2013-05-10 04:57:00,54.3,52.3,29.97,West,272,0.0,2.0,93,0.00,,---,0.00,VWS V14.01,2013-05-10 08:57:00,
2013-05-10 05:02:00,54.4,52.4,29.97,West,274,0.0,2.0,93,0.00,,---,0.00,VWS V14.01,2013-05-10 09:02:00,
2013-05-10 05:07:00,54.6,52.6,29.97,West,274,0.0,0.0,93,0.00,,---,0.00,VWS V14.01,2013-05-10 09:07:00,
2013-05-10 05:13:00,54.8,53.1,29.97,West,274,0.0,1.0,94,0.00,,---,0.00,VWS V14.01,2013-05-10 09:13:00,
2013-05-10 05:18:00,54.9,53.2,29.97,West,274,0.0,1.0,94,0.00,,---,0.00,VWS V14.01,2013-05-10 09:18:00,
2013-05-10 05:23:00,54.8,52.8,29.97,West,274,0.0,1.0,93,0.00,,---,0.00,VWS V14.01,2013-05-10 09:23:00,
2013-05-10 05:28:00,54.6,52.6,29.97,West,274,0.0,1.0,93,0.00,,---,0.00,VWS V14.01,2013-05-10 09:28:00,
2013-05-10 05:33:00,54.4,52.4,29.98,West,274,0.0,1.0,93,0.00,,---,0.00,VWS V14.01,2013-05-10 09:33:00,
2013-05-10 05:38:00,54.3,52.3,29.98,West,274,0.0,0.0,93,0.00,,---,0.00,VWS V14.01,2013-05-10 09:38:00,
2013-05-10 05:43:00,54.0,52.0,29.97,West,274,0.0,0.0,93,0.00,,---,0.00,VWS V14.01,2013-05-10 09:43:00,
2013-05-10 05:48:00,53.7,51.7,29.97,West,274,0.0,0.0,93,0.00,,---,0.00,VWS V14.01,2013-05-10 09:48:00,
2013-05-10 05:53:00,53.5,51.5,29.98,West,274,0.0,0.0,93,0.00,,---,0.00,VWS V14.01,2013-05-10 09:53:00,
2013-05-10 05:58:00,53.5,51.5,29.98,West,274,0.0,0.0,93,0.00,,---,0.00,VWS V14.01,2013-05-10 09:58:00,
2013-05-10 06:03:00,53.8,51.8,29.98,West,274,0.0,0.0,93,0.00,,---,0.00,VWS V14.01,2013-05-10 10:03:00,
2013-05-10 06:08:00,54.0,52.0,29.98,West,274,0.0,0.0,93,0.00,,---,0.00,VWS V14.01,2013-05-10 10:08:00,
2013-05-10 06:13:00,54.1,52.1,29.98,West,274,0.0,0.0,93,0.00,,---,0.00,VWS V14.01,2013-05-10 10:13:00,
2013-05-10 06:18:00,54.3,52.3,29.98,West,274,0.0,0.0,93,0.00,,---,0.00,VWS V14.01,2013-05-10 10:18:00,
2013-05-10 06:23:00,54.5,52.8,29.98,West,274,0.0,0.0,94,0.00,,---,0.00,VWS V14.01,2013-05-10 10:23:00,
2013-05-10 06:28:00,54.6,52.9,29.99,West,274,0.0,0.0,94,0.00,,---,0.00,VWS V14.01,2013-05-10 10:28:00,
2013-05-10 06:33:00,55.0,53.3,29.99,West,274,0.0,0.0,94,0.00,,---,0.00,VWS V14.01,2013-05-10 10:33:00,
2013-05-10 06:38:00,55.7,54.0,29.99,West,274,0.0,0.0,94,0.00,,---,0.00,VWS V14.01,2013-05-10 10:38:00,
2013-05-10 06:43:00,55.8,54.1,29.99,NNE,25,0.0,0.0,94,0.00,,---,0.00,VWS V14.01,2013-05-10 10:43:00,
2013-05-10 06:48:00,55.9,54.2,29.99,NNE,27,0.0,0.0,94,0.00,,---,0.00,VWS V14.01,2013-05-10 10:48:00,
2013-05-10 06:53:00,55.8,53.8,29.99,NNE,27,0.0,0.0,93,0.00,,---,0.00,VWS V14.01,2013-05-10 10:53:00,
2013-05-10 06:58:00,55.9,53.9,29.99,NNE,27,0.0,0.0,93,0.00,,---,0.00,VWS V14.01,2013-05-10 10:58:00,
2013-05-10 07:03:00,56.1,54.1,30.00,NNE,27,0.0,0.0,93,0.00,,---,0.00,VWS V14.01,2013-05-10 11:03:00,
2013-05-10 07:08:00,56.3,54.3,30.00,NNE,27,0.0,0.0,93,0.00,,---,0.00,VWS V14.01,2013-05-10 11:08:00,
2013-05-10 07:13:00,56.9,54.9,30.00,NNE,27,0.0,0.0,93,0.00,,---,0.00,VWS V14.01,2013-05-10 11:13:00,
2013-05-10 07:18:00,57.5,55.5,30.00,NNE,27,0.0,0.0,93,0.00,,---,0.00,VWS V14.01,2013-05-10 11:18:00,
2013-05-10 07:23:00,57.4,55.4,30.00,East,90,1.0,1.0,93,0.00,,---,0.00,VWS V14.01,2013-05-10 11:23:00,
2013-05-10 07:28:00,57.4,55.1,30.00,East,99,0.0,2.0,92,0.00,,---,0.00,VWS V14.01,2013-05-10 11:28:00,
2013-05-10 07:33:00,58.4,56.4,30.00,East,99,0.0,2.0,93,0.00,,---,0.00,VWS V14.01,2013-05-10 11:33:00,
2013-05-10 07:38:00,59.0,56.7,30.00,East,99,0.0,1.0,92,0.00,,---,0.00,VWS V14.01,2013-05-10 11:38:00,
2013-05-10 07:43:00,59.3,56.4,30.00,East,101,0.0,1.0,90,0.00,,---,0.00,VWS V14.01,2013-05-10 11:43:00,
2013-05-10 07:48:00,60.0,57.1,30.00,ESE,102,0.0,1.0,90,0.00,,---,0.00,VWS V14.01,2013-05-10 11:48:00,
2013-05-10 07:53:00,60.1,56.2,30.00,East,101,1.0,1.0,87,0.00,,---,0.00,VWS V14.01,2013-05-10 11:53:00,
2013-05-10 07:58:00,60.2,56.3,30.00,East,99,0.0,1.0,87,0.00,,---,0.00,VWS V14.01,2013-05-10 11:58:00,
2013-05-10 08:03:00,61.1,56.9,30.00,East,99,0.0,0.0,86,0.00,,---,0.00,VWS V14.01,2013-05-10 12:03:00,
2013-05-10 08:08:00,61.3,56.8,30.00,NE,37,0.0,1.0,85,0.00,,---,0.00,VWS V14.01,2013-05-10 12:08:00,
2013-05-10 08:13:00,61.5,57.0,30.00,NNE,27,0.0,1.0,85,0.00,,---,0.00,VWS V14.01,2013-05-10 12:13:00,
2013-05-10 08:18:00,62.0,57.1,30.00,NW,326,2.0,2.0,84,0.00,,---,0.00,VWS V14.01,2013-05-10 12:18:00,
2013-05-10 08:23:00,61.6,56.1,30.00,West,274,1.0,2.0,82,0.00,,---,0.00,VWS V14.01,2013-05-10 12:23:00,
2013-05-10 08:28:00,61.4,56.5,30.00,NW,318,0.0,2.0,84,0.00,,---,0.00,VWS V14.01,2013-05-10 12:28:00,
2013-05-10 08:33:00,62.1,56.9,30.00,NNW,335,1.0,1.0,83,0.00,,---,0.00,VWS V14.01,2013-05-10 12:33:00,
2013-05-10 08:38:00,61.9,56.3,30.00,NW,305,1.0,2.0,82,0.00,,---,0.00,VWS V14.01,2013-05-10 12:38:00,
2013-05-10 08:43:00,61.5,56.3,30.00,NNW,335,1.0,3.0,83,0.00,,---,0.00,VWS V14.01,2013-05-10 12:43:00,
2013-05-10 08:48:00,61.8,56.9,30.00,West,277,0.0,3.0,84,0.00,,---,0.00,VWS V14.01,2013-05-10 12:48:00,
2013-05-10 08:53:00,63.0,57.8,30.00,SW,221,0.0,3.0,83,0.00,,---,0.00,VWS V14.01,2013-05-10 12:53:00,
2013-05-10 08:58:00,63.8,57.5,29.99,NNE,31,1.0,3.0,80,0.00,,---,0.00,VWS V14.01,2013-05-10 12:58:00,
2013-05-10 09:03:00,63.4,57.1,29.99,East,98,0.0,0.0,80,0.00,,---,0.00,VWS V14.01,2013-05-10 13:03:00,
2013-05-10 09:08:00,63.9,57.6,30.00,SE,138,1.0,2.0,80,0.00,,---,0.00,VWS V14.01,2013-05-10 13:08:00,
2013-05-10 09:13:00,64.8,58.1,29.99,NW,305,0.0,2.0,79,0.00,,---,0.00,VWS V14.01,2013-05-10 13:13:00,
2013-05-10 09:18:00,65.1,58.1,29.99,NE,36,4.0,4.0,78,0.00,,---,0.00,VWS V14.01,2013-05-10 13:18:00,
2013-05-10 09:23:00,65.0,58.0,29.99,West,281,1.0,4.0,78,0.00,,---,0.00,VWS V14.01,2013-05-10 13:23:00,
2013-05-10 09:28:00,65.0,57.3,29.99,WNW,298,3.0,4.0,76,0.00,,---,0.00,VWS V14.01,2013-05-10 13:28:00,
2013-05-10 09:33:00,64.6,57.6,29.99,West,269,0.0,0.0,78,0.00,,---,0.00,VWS V14.01,2013-05-10 13:33:00,
2013-05-10 09:38:00,65.1,57.7,30.00,West,262,1.0,4.0,77,0.00,,---,0.00,VWS V14.01,2013-05-10 13:38:00,
2013-05-10 09:43:00,66.0,58.2,29.99,SW,229,3.0,4.0,76,0.00,,---,0.00,VWS V14.01,2013-05-10 13:43:00,
2013-05-10 09:48:00,66.3,57.8,29.99,West,269,0.0,4.0,74,0.00,,---,0.00,VWS V14.01,2013-05-10 13:48:00,
2013-05-10 09:53:00,67.6,57.9,29.99,SSW,209,0.0,4.0,71,0.00,,---,0.00,VWS V14.01,2013-05-10 13:53:00,
2013-05-10 09:58:00,68.0,58.3,30.00,NW,311,2.0,4.0,71,0.00,,---,0.00,VWS V14.01,2013-05-10 13:58:00,
2013-05-10 10:03:00,68.7,59.7,29.99,SSE,150,0.0,0.0,73,0.00,,---,0.00,VWS V14.01,2013-05-10 14:03:00,
2013-05-10 10:08:00,69.7,58.7,29.99,SSE,149,0.0,2.0,68,0.00,,---,0.00,VWS V14.01,2013-05-10 14:08:00,
2013-05-10 10:13:00,70.0,57.7,29.99,SW,221,2.0,5.0,65,0.00,,---,0.00,VWS V14.01,2013-05-10 14:13:00,
2013-05-10 10:18:00,69.5,57.7,30.00,WNW,302,1.0,5.0,66,0.00,,---,0.00,VWS V14.01,2013-05-10 14:18:00,
2013-05-10 10:23:00,69.4,57.6,29.99,WNW,302,0.0,5.0,66,0.00,,---,0.00,VWS V14.01,2013-05-10 14:23:00,
2013-05-10 10:28:00,70.0,58.1,29.99,WNW,288,1.0,5.0,66,0.00,,---,0.00,VWS V14.01,2013-05-10 14:28:00,
2013-05-10 10:34:00,70.3,57.6,29.99,West,281,2.0,2.0,64,0.00,,---,0.00,VWS V14.01,2013-05-10 14:34:00,
2013-05-10 10:39:00,70.5,56.4,29.99,NNW,338,3.0,4.0,61,0.00,,---,0.00,VWS V14.01,2013-05-10 14:39:00,
2013-05-10 10:44:00,70.5,56.9,29.99,WSW,256,1.0,4.0,62,0.00,,---,0.00,VWS V14.01,2013-05-10 14:44:00,
2013-05-10 10:49:00,70.5,56.9,29.99,WSW,246,0.0,4.0,62,0.00,,---,0.00,VWS V14.01,2013-05-10 14:49:00,
2013-05-10 10:54:00,71.0,58.7,29.98,WSW,255,1.0,4.0,65,0.00,,---,0.00,VWS V14.01,2013-05-10 14:54:00,
2013-05-10 10:59:00,71.2,57.1,29.98,SW,231,4.0,4.0,61,0.00,,---,0.00,VWS V14.01,2013-05-10 14:59:00,
2013-05-10 11:04:00,71.7,56.2,29.98,WSW,257,3.0,6.0,58,0.00,,---,0.00,VWS V14.01,2013-05-10 15:04:00,
2013-05-10 11:09:00,71.4,56.8,29.98,SSW,193,3.0,6.0,60,0.00,,---,0.00,VWS V14.01,2013-05-10 15:09:00,
2013-05-10 11:14:00,72.3,57.2,29.98,WNW,297,3.0,6.0,59,0.00,,---,0.00,VWS V14.01,2013-05-10 15:14:00,
2013-05-10 11:19:00,71.9,56.3,29.98,WSW,246,3.0,6.0,58,0.00,,---,0.00,VWS V14.01,2013-05-10 15:19:00,
2013-05-10 11:24:00,72.3,56.7,29.98,South,188,1.0,6.0,58,0.00,,---,0.00,VWS V14.01,2013-05-10 15:24:00,
2013-05-10 11:29:00,73.1,57.0,29.97,SSW,201,4.0,8.0,57,0.00,,---,0.00,VWS V14.01,2013-05-10 15:29:00,
2013-05-10 11:34:00,73.4,57.3,29.97,WSW,243,4.0,6.0,57,0.00,,---,0.00,VWS V14.01,2013-05-10 15:34:00,
2013-05-10 11:39:00,73.4,56.8,29.97,SSW,198,3.0,6.0,56,0.00,,---,0.00,VWS V14.01,2013-05-10 15:39:00,
2013-05-10 11:44:00,73.3,57.2,29.97,WSW,255,1.0,6.0,57,0.00,,---,0.00,VWS V14.01,2013-05-10 15:44:00,
2013-05-10 11:49:00,73.4,55.8,29.97,WNW,285,1.0,7.0,54,0.00,,---,0.00,VWS V14.01,2013-05-10 15:49:00,
2013-05-10 11:54:00,73.3,57.2,29.97,SW,217,0.0,7.0,57,0.00,,---,0.00,VWS V14.01,2013-05-10 15:54:00,
2013-05-10 11:59:00,73.5,56.9,29.97,WNW,288,1.0,7.0,56,0.00,,---,0.00,VWS V14.01,2013-05-10 15:59:00,
2013-05-10 12:04:00,72.8,56.2,29.97,North,5,1.0,2.0,56,0.00,,---,0.00,VWS V14.01,2013-05-10 16:04:00,
2013-05-10 12:09:00,72.9,56.8,29.97,NW,311,2.0,3.0,57,0.00,,---,0.00,VWS V14.01,2013-05-10 16:09:00,
2013-05-10 12:14:00,72.7,56.6,29.97,WSW,255,1.0,6.0,57,0.00,,---,0.00,VWS V14.01,2013-05-10 16:14:00,
2013-05-10 12:19:00,72.8,56.7,29.97,West,280,0.0,6.0,57,0.00,,---,0.00,VWS V14.01,2013-05-10 16:19:00,
2013-05-10 12:24:00,73.3,57.2,29.97,SW,222,4.0,9.0,57,0.00,,---,0.00,VWS V14.01,2013-05-10 16:24:00,
2013-05-10 12:29:00,73.7,58.0,29.97,SW,229,2.0,9.0,58,0.00,,---,0.00,VWS V14.01,2013-05-10 16:29:00,
2013-05-10 12:34:00,73.6,55.4,29.97,WSW,246,1.0,7.0,53,0.00,,---,0.00,VWS V14.01,2013-05-10 16:34:00,
2013-05-10 12:39:00,73.9,55.2,29.97,WNW,293,4.0,7.0,52,0.00,,---,0.00,VWS V14.01,2013-05-10 16:39:00,
2013-05-10 12:44:00,73.8,56.1,29.97,SE,127,1.0,7.0,54,0.00,,---,0.00,VWS V14.01,2013-05-10 16:44:00,
2013-05-10 12:49:00,74.3,57.1,29.96,WSW,238,4.0,8.0,55,0.00,,---,0.00,VWS V14.01,2013-05-10 16:49:00,
2013-05-10 12:54:00,74.4,55.7,29.96,South,180,1.0,8.0,52,0.00,,---,0.00,VWS V14.01,2013-05-10 16:54:00,
2013-05-10 12:59:00,75.1,57.3,29.95,NE,53,2.0,8.0,54,0.00,,---,0.00,VWS V14.01,2013-05-10 16:59:00,
2013-05-10 13:04:00,74.9,56.6,29.95,WSW,243,4.0,4.0,53,0.00,,---,0.00,VWS V14.01,2013-05-10 17:04:00,
2013-05-10 13:09:00,75.4,56.6,29.95,West,276,4.0,6.0,52,0.00,,---,0.00,VWS V14.01,2013-05-10 17:09:00,
2013-05-10 13:14:00,75.7,56.3,29.95,SE,128,1.0,6.0,51,0.00,,---,0.00,VWS V14.01,2013-05-10 17:14:00,
2013-05-10 13:19:00,76.5,57.0,29.95,West,277,4.0,6.0,51,0.00,,---,0.00,VWS V14.01,2013-05-10 17:19:00,
2013-05-10 13:24:00,76.4,54.7,29.95,WNW,295,5.0,8.0,47,0.00,,---,0.00,VWS V14.01,2013-05-10 17:24:00,
2013-05-10 13:29:00,76.3,53.4,29.95,SSW,194,8.0,11.0,45,0.00,,---,0.00,VWS V14.01,2013-05-10 17:29:00,
2013-05-10 13:34:00,76.5,55.4,29.95,SSW,204,5.0,5.0,48,0.00,,---,0.00,VWS V14.01,2013-05-10 17:34:00,
2013-05-10 13:39:00,76.7,54.4,29.94,SW,233,4.0,11.0,46,0.00,,---,0.00,VWS V14.01,2013-05-10 17:39:00,
2013-05-10 13:44:00,76.8,53.9,29.94,SSE,150,3.0,11.0,45,0.00,,---,0.00,VWS V14.01,2013-05-10 17:44:00,
2013-05-10 13:49:00,77.5,53.9,29.94,South,191,1.0,11.0,44,0.00,,---,0.00,VWS V14.01,2013-05-10 17:49:00,
2013-05-10 13:54:00,77.8,54.2,29.94,SW,229,9.0,11.0,44,0.00,,---,0.00,VWS V14.01,2013-05-10 17:54:00,
2013-05-10 13:59:00,77.8,54.8,29.94,SSW,203,4.0,11.0,45,0.00,,---,0.00,VWS V14.01,2013-05-10 17:59:00,
2013-05-10 14:04:00,77.8,52.9,29.93,SE,130,4.0,6.0,42,0.00,,---,0.00,VWS V14.01,2013-05-10 18:04:00,
2013-05-10 14:09:00,77.7,53.5,29.94,West,273,3.0,10.0,43,0.00,,---,0.00,VWS V14.01,2013-05-10 18:09:00,
2013-05-10 14:14:00,77.9,51.7,29.93,West,263,3.0,10.0,40,0.00,,---,0.00,VWS V14.01,2013-05-10 18:14:00,
2013-05-10 14:19:00,78.0,52.4,29.93,WNW,287,2.0,10.0,41,0.00,,---,0.00,VWS V14.01,2013-05-10 18:19:00,
2013-05-10 14:24:00,78.3,54.0,29.93,NW,305,5.0,10.0,43,0.00,,---,0.00,VWS V14.01,2013-05-10 18:24:00,
2013-05-10 14:29:00,78.5,53.5,29.93,West,278,2.0,10.0,42,0.00,,---,0.00,VWS V14.01,2013-05-10 18:29:00,
2013-05-10 14:34:00,78.9,55.2,29.93,WSW,238,2.0,3.0,44,0.00,,---,0.00,VWS V14.01,2013-05-10 18:34:00,
2013-05-10 14:39:00,79.1,53.4,29.93,West,277,0.0,7.0,41,0.00,,---,0.00,VWS V14.01,2013-05-10 18:39:00,
2013-05-10 14:44:00,79.9,54.1,29.93,SW,224,1.0,7.0,41,0.00,,---,0.00,VWS V14.01,2013-05-10 18:44:00,
2013-05-10 14:49:00,79.7,52.6,29.92,SW,224,0.0,7.0,39,0.00,,---,0.00,VWS V14.01,2013-05-10 18:49:00,
2013-05-10 14:54:00,79.7,53.9,29.92,WSW,256,1.0,7.0,41,0.00,,---,0.00,VWS V14.01,2013-05-10 18:54:00,
2013-05-10 14:59:00,79.6,52.5,29.92,NW,305,1.0,7.0,39,0.00,,---,0.00,VWS V14.01,2013-05-10 18:59:00,
2013-05-10 15:04:00,79.6,53.2,29.92,WNW,302,3.0,5.0,40,0.00,,---,0.00,VWS V14.01,2013-05-10 19:04:00,
2013-05-10 15:09:00,78.9,52.5,29.92,NW,308,3.0,7.0,40,0.00,,---,0.00,VWS V14.01,2013-05-10 19:09:00,
2013-05-10 15:14:00,78.8,53.8,29.92,SSW,212,2.0,7.0,42,0.00,,---,0.00,VWS V14.01,2013-05-10 19:14:00,
2013-05-10 15:19:00,78.8,52.5,29.92,NW,308,1.0,7.0,40,0.00,,---,0.00,VWS V14.01,2013-05-10 19:19:00,
2013-05-10 15:24:00,78.7,53.0,29.92,SSW,207,2.0,10.0,41,0.00,,---,0.00,VWS V14.01,2013-05-10 19:24:00,
2013-05-10 15:29:00,78.7,52.4,29.92,WSW,238,7.0,10.0,40,0.00,,---,0.00,VWS V14.01,2013-05-10 19:29:00,
2013-05-10 15:34:00,78.5,54.2,29.92,SW,228,3.0,5.0,43,0.00,,---,0.00,VWS V14.01,2013-05-10 19:34:00,
2013-05-10 15:40:00,78.5,53.5,29.91,South,173,2.0,5.0,42,0.00,,---,0.00,VWS V14.01,2013-05-10 19:40:00,
2013-05-10 15:45:00,78.6,53.6,29.91,SW,222,5.0,8.0,42,0.00,,---,0.00,VWS V14.01,2013-05-10 19:45:00,
2013-05-10 15:50:00,78.9,53.9,29.91,SW,215,2.0,8.0,42,0.00,,---,0.00,VWS V14.01,2013-05-10 19:50:00,
2013-05-10 15:55:00,79.4,54.3,29.91,WSW,241,1.0,8.0,42,0.00,,---,0.00,VWS V14.01,2013-05-10 19:55:00,
2013-05-10 16:00:00,79.4,53.0,29.91,WNW,297,3.0,8.0,40,0.00,,---,0.00,VWS V14.01,2013-05-10 20:00:00,
2013-05-10 16:05:00,79.2,52.1,29.91,WNW,293,2.0,5.0,39,0.00,,---,0.00,VWS V14.01,2013-05-10 20:05:00,
2013-05-10 16:10:00,79.1,52.0,29.91,WSW,238,1.0,5.0,39,0.00,,---,0.00,VWS V14.01,2013-05-10 20:10:00,
2013-05-10 16:15:00,79.3,51.5,29.90,NW,308,5.0,6.0,38,0.00,,---,0.00,VWS V14.01,2013-05-10 20:15:00,
2013-05-10 16:20:00,78.8,51.8,29.90,WNW,291,5.0,7.0,39,0.00,,---,0.00,VWS V14.01,2013-05-10 20:20:00,
2013-05-10 16:25:00,79.0,52.6,29.90,NW,312,0.0,7.0,40,0.00,,---,0.00,VWS V14.01,2013-05-10 20:25:00,
2013-05-10 16:30:00,79.4,52.3,29.90,NE,38,2.0,7.0,39,0.00,,---,0.00,VWS V14.01,2013-05-10 20:30:00,
2013-05-10 16:35:00,79.2,52.8,29.90,West,259,0.0,4.0,40,0.00,,---,0.00,VWS V14.01,2013-05-10 20:35:00,
2013-05-10 16:40:00,79.1,52.7,29.90,NNW,330,7.0,8.0,40,0.00,,---,0.00,VWS V14.01,2013-05-10 20:40:00,
2013-05-10 16:45:00,78.8,55.1,29.90,WNW,283,0.0,8.0,44,0.00,,---,0.00,VWS V14.01,2013-05-10 20:45:00,
2013-05-10 16:50:00,78.8,53.1,29.89,SSW,205,2.0,8.0,41,0.00,,---,0.00,VWS V14.01,2013-05-10 20:50:00,
2013-05-10 16:55:00,79.0,53.3,29.90,SW,233,3.0,8.0,41,0.00,,---,0.00,VWS V14.01,2013-05-10 20:55:00,
2013-05-10 17:00:00,79.4,53.0,29.89,SSE,156,0.0,8.0,40,0.00,,---,0.00,VWS V14.01,2013-05-10 21:00:00,
2013-05-10 17:05:00,79.0,52.0,29.89,SW,223,6.0,8.0,39,0.00,,---,0.00,VWS V14.01,2013-05-10 21:05:00,
2013-05-10 17:10:00,78.7,53.0,29.89,WSW,246,3.0,9.0,41,0.00,,---,0.00,VWS V14.01,2013-05-10 21:10:00,
2013-05-10 17:15:00,78.5,52.2,29.89,SE,136,3.0,9.0,40,0.00,,---,0.00,VWS V14.01,2013-05-10 21:15:00,
2013-05-10 17:20:00,78.5,53.5,29.89,WNW,285,0.0,9.0,42,0.00,,---,0.00,VWS V14.01,2013-05-10 21:20:00,
2013-05-10 17:25:00,78.5,54.8,29.89,SW,225,0.0,9.0,44,0.00,,---,0.00,VWS V14.01,2013-05-10 21:25:00,
2013-05-10 17:30:00,78.2,52.6,29.89,SW,233,0.0,9.0,41,0.00,,---,0.00,VWS V14.01,2013-05-10 21:30:00,
2013-05-10 17:35:00,78.1,53.2,29.89,South,183,1.0,3.0,42,0.00,,---,0.00,VWS V14.01,2013-05-10 21:35:00,
2013-05-10 17:40:00,77.9,53.0,29.88,South,187,2.0,4.0,42,0.00,,---,0.00,VWS V14.01,2013-05-10 21:40:00,
2013-05-10 17:45:00,77.7,52.8,29.88,SSE,156,2.0,5.0,42,0.00,,---,0.00,VWS V14.01,2013-05-10 21:45:00,
2013-05-10 17:50:00,77.6,53.4,29.88,South,174,2.0,5.0,43,0.00,,---,0.00,VWS V14.01,2013-05-10 21:50:00,
2013-05-10 17:55:00,77.5,54.5,29.88,South,179,2.0,5.0,45,0.00,,---,0.00,VWS V14.01,2013-05-10 21:55:00,
2013-05-10 17:58:00,77.4,53.8,29.88,SSE,160,2.0,5.0,44,0.00,,---,0.00,VWS V14.01,2013-05-10 21:58:00,
2013-05-10 18:03:00,77.4,53.8,29.87,SSE,163,2.0,2.0,44,0.00,,---,0.00,VWS V14.01,2013-05-10 22:03:00,
2013-05-10 18:08:00,77.4,53.8,29.87,South,173,2.0,3.0,44,0.00,,---,0.00,VWS V14.01,2013-05-10 22:08:00,
2013-05-10 18:13:00,77.4,54.4,29.87,SSE,155,1.0,4.0,45,0.00,,---,0.00,VWS V14.01,2013-05-10 22:13:00,
2013-05-10 18:18:00,77.3,54.3,29.87,SSE,162,3.0,4.0,45,0.00,,---,0.00,VWS V14.01,2013-05-10 22:18:00,
2013-05-10 18:23:00,77.2,54.8,29.87,SSW,195,0.0,4.0,46,0.00,,---,0.00,VWS V14.01,2013-05-10 22:23:00,
2013-05-10 18:28:00,77.1,55.3,29.87,SW,223,1.0,4.0,47,0.00,,---,0.00,VWS V14.01,2013-05-10 22:28:00,
2013-05-10 18:33:00,77.0,54.7,29.87,SSW,210,0.0,0.0,46,0.00,,---,0.00,VWS V14.01,2013-05-10 22:33:00,
2013-05-10 18:38:00,77.0,54.7,29.87,SSW,193,2.0,2.0,46,0.00,,---,0.00,VWS V14.01,2013-05-10 22:38:00,
2013-05-10 18:43:00,77.1,54.2,29.87,SW,225,3.0,4.0,45,0.00,,---,0.00,VWS V14.01,2013-05-10 22:43:00,
2013-05-10 18:48:00,77.0,54.1,29.87,SSW,203,2.0,4.0,45,0.00,,---,0.00,VWS V14.01,2013-05-10 22:48:00,
2013-05-10 18:53:00,76.8,54.5,29.87,SW,221,4.0,6.0,46,0.00,,---,0.00,VWS V14.01,2013-05-10 22:53:00,
2013-05-10 18:58:00,76.7,53.8,29.87,SSW,209,1.0,6.0,45,0.00,,---,0.00,VWS V14.01,2013-05-10 22:58:00,
2013-05-10 19:03:00,76.6,53.7,29.87,SSW,201,3.0,4.0,45,0.00,,---,0.00,VWS V14.01,2013-05-10 23:03:00,
2013-05-10 19:08:00,76.5,53.0,29.87,South,186,2.0,6.0,44,0.00,,---,0.00,VWS V14.01,2013-05-10 23:08:00,
2013-05-10 19:13:00,76.4,53.5,29.87,SW,224,4.0,6.0,45,0.00,,---,0.00,VWS V14.01,2013-05-10 23:13:00,
2013-05-10 19:18:00,76.1,54.4,29.87,SSW,195,2.0,6.0,47,0.00,,---,0.00,VWS V14.01,2013-05-10 23:18:00,
2013-05-10 19:23:00,75.8,54.7,29.87,South,184,2.0,6.0,48,0.00,,---,0.00,VWS V14.01,2013-05-10 23:23:00,
2013-05-10 19:28:00,75.4,54.9,29.87,SE,141,1.0,6.0,49,0.00,,---,0.00,VWS V14.01,2013-05-10 23:28:00,
2013-05-10 19:33:00,75.0,54.6,29.87,SSE,163,3.0,3.0,49,0.00,,---,0.00,VWS V14.01,2013-05-10 23:33:00,
2013-05-10 19:38:00,74.8,54.4,29.87,SSW,205,4.0,6.0,49,0.00,,---,0.00,VWS V14.01,2013-05-10 23:38:00,
2013-05-10 19:43:00,74.8,54.4,29.87,SW,221,3.0,6.0,49,0.00,,---,0.00,VWS V14.01,2013-05-10 23:43:00,
2013-05-10 19:48:00,74.7,54.3,29.87,SSW,207,4.0,7.0,49,0.00,,---,0.00,VWS V14.01,2013-05-10 23:48:00,
2013-05-10 19:53:00,74.8,54.4,29.87,SSW,213,5.0,13.0,49,0.00,,---,0.00,VWS V14.01,2013-05-10 23:53:00,
2013-05-10 19:58:00,74.9,55.0,29.87,SW,219,8.0,13.0,50,0.00,,---,0.00,VWS V14.01,2013-05-10 23:58:00,
2013-05-10 20:04:00,74.8,54.9,29.87,SSE,167,4.0,4.0,50,0.00,,---,0.00,VWS V14.01,2013-05-11 00:04:00,
2013-05-10 20:09:00,74.5,55.2,29.87,South,179,4.0,5.0,51,0.00,,---,0.00,VWS V14.01,2013-05-11 00:09:00,
2013-05-10 20:14:00,74.4,55.1,29.86,SSE,150,4.0,8.0,51,0.00,,---,0.00,VWS V14.01,2013-05-11 00:14:00,
2013-05-10 20:19:00,74.4,55.1,29.87,SW,223,6.0,10.0,51,0.00,,---,0.00,VWS V14.01,2013-05-11 00:19:00,
2013-05-10 20:24:00,74.5,55.2,29.87,SSW,200,8.0,10.0,51,0.00,,---,0.00,VWS V14.01,2013-05-11 00:24:00,
2013-05-10 20:29:00,74.6,55.3,29.87,SSW,208,8.0,12.0,51,0.00,,---,0.00,VWS V14.01,2013-05-11 00:29:00,
2013-05-10 20:34:00,74.8,55.5,29.87,SW,231,6.0,8.0,51,0.00,,---,0.00,VWS V14.01,2013-05-11 00:34:00,
2013-05-10 20:39:00,75.0,55.1,29.87,WSW,239,6.0,16.0,50,0.00,,---,0.00,VWS V14.01,2013-05-11 00:39:00,
2013-05-10 20:44:00,74.9,55.0,29.87,SSW,211,8.0,16.0,50,0.00,,---,0.00,VWS V14.01,2013-05-11 00:44:00,
2013-05-10 20:49:00,74.8,55.5,29.87,SW,217,7.0,16.0,51,0.00,,---,0.00,VWS V14.01,2013-05-11 00:49:00,
2013-05-10 20:54:00,74.6,55.8,29.87,SW,224,4.0,16.0,52,0.00,,---,0.00,VWS V14.01,2013-05-11 00:54:00,
2013-05-10 20:59:00,74.3,55.6,29.87,SW,215,4.0,16.0,52,0.00,,---,0.00,VWS V14.01,2013-05-11 00:59:00,
2013-05-10 21:04:00,74.5,55.7,29.87,SSW,205,5.0,7.0,52,0.00,,---,0.00,VWS V14.01,2013-05-11 01:04:00,
2013-05-10 21:09:00,74.4,55.7,29.87,South,176,5.0,13.0,52,0.00,,---,0.00,VWS V14.01,2013-05-11 01:09:00,
2013-05-10 21:14:00,74.3,55.6,29.87,SSE,163,3.0,13.0,52,0.00,,---,0.00,VWS V14.01,2013-05-11 01:14:00,
2013-05-10 21:19:00,74.1,55.9,29.88,SW,231,7.0,13.0,53,0.00,,---,0.00,VWS V14.01,2013-05-11 01:19:00,
2013-05-10 21:24:00,74.2,56.0,29.88,SW,222,9.0,19.0,53,0.00,,---,0.00,VWS V14.01,2013-05-11 01:24:00,
2013-05-10 21:29:00,74.1,55.9,29.88,SW,217,7.0,19.0,53,0.00,,---,0.00,VWS V14.01,2013-05-11 01:29:00,
2013-05-10 21:34:00,74.0,56.3,29.88,WSW,249,5.0,10.0,54,0.00,,---,0.00,VWS V14.01,2013-05-11 01:34:00,
2013-05-10 21:39:00,73.8,56.1,29.88,SW,218,5.0,10.0,54,0.00,,---,0.00,VWS V14.01,2013-05-11 01:39:00,
2013-05-10 21:44:00,73.5,56.4,29.88,WSW,243,4.0,10.0,55,0.00,,---,0.00,VWS V14.01,2013-05-11 01:44:00,
2013-05-10 21:49:00,73.3,56.7,29.89,West,279,2.0,10.0,56,0.00,,---,0.00,VWS V14.01,2013-05-11 01:49:00,
2013-05-10 21:54:00,72.8,56.7,29.90,WSW,243,3.0,13.0,57,0.00,,---,0.00,VWS V14.01,2013-05-11 01:54:00,
2013-05-10 21:59:00,72.4,57.3,29.90,NW,315,13.0,15.0,59,0.00,,---,0.00,VWS V14.01,2013-05-11 01:59:00,
2013-05-10 22:04:00,71.6,57.9,29.91,NW,315,6.0,10.0,62,0.00,,---,0.00,VWS V14.01,2013-05-11 02:04:00,
2013-05-10 22:09:00,70.6,58.3,29.91,NW,304,3.0,14.0,65,0.00,,---,0.00,VWS V14.01,2013-05-11 02:09:00,
2013-05-10 22:14:00,69.6,58.6,29.90,WSW,255,2.0,14.0,68,0.00,,---,0.00,VWS V14.01,2013-05-11 02:14:00,
2013-05-10 22:19:00,68.9,58.7,29.91,NW,312,6.0,14.0,70,0.00,,---,0.00,VWS V14.01,2013-05-11 02:19:00,
2013-05-10 22:24:00,68.4,59.0,29.91,West,271,4.0,14.0,72,0.00,,---,0.00,VWS V14.01,2013-05-11 02:24:00,
2013-05-10 22:29:00,68.0,59.0,29.91,WNW,292,3.0,14.0,73,0.00,,---,0.00,VWS V14.01,2013-05-11 02:29:00,
2013-05-10 22:34:00,67.5,58.9,29.92,West,259,10.0,10.0,74,0.00,,---,0.00,VWS V14.01,2013-05-11 02:34:00,
2013-05-10 22:39:00,66.7,59.6,29.91,WNW,291,3.0,12.0,78,0.01,,---,0.01,VWS V14.01,2013-05-11 02:39:00,
2013-05-10 22:44:00,65.8,59.8,29.91,NW,317,3.0,12.0,81,0.01,,---,0.01,VWS V14.01,2013-05-11 02:44:00,
2013-05-10 22:49:00,65.3,60.0,29.91,West,269,1.0,12.0,83,0.02,,---,0.02,VWS V14.01,2013-05-11 02:49:00,
2013-05-10 22:54:00,64.9,60.0,29.91,WSW,254,2.0,12.0,84,0.03,,---,0.03,VWS V14.01,2013-05-11 02:54:00,
2013-05-10 22:59:00,64.6,60.0,29.91,WSW,242,1.0,12.0,85,0.04,,---,0.04,VWS V14.01,2013-05-11 02:59:00,
2013-05-10 23:04:00,64.3,60.0,29.91,WSW,245,1.0,1.0,86,0.05,,---,0.05,VWS V14.01,2013-05-11 03:04:00,
2013-05-10 23:09:00,64.0,60.1,29.91,SW,228,1.0,5.0,87,0.07,,---,0.07,VWS V14.01,2013-05-11 03:09:00,
2013-05-10 23:14:00,63.8,60.2,29.91,West,268,0.0,6.0,88,0.08,,---,0.08,VWS V14.01,2013-05-11 03:14:00,
2013-05-10 23:19:00,63.6,60.0,29.91,WNW,297,3.0,6.0,88,0.09,,---,0.09,VWS V14.01,2013-05-11 03:19:00,
2013-05-10 23:24:00,63.5,60.2,29.90,West,259,0.0,6.0,89,0.10,,---,0.10,VWS V14.01,2013-05-11 03:24:00,
2013-05-10 23:29:00,63.4,60.1,29.91,WNW,302,1.0,6.0,89,0.11,,---,0.11,VWS V14.01,2013-05-11 03:29:00,
2013-05-10 23:34:00,63.3,60.0,29.90,WNW,288,1.0,1.0,89,0.11,,---,0.11,VWS V14.01,2013-05-11 03:34:00,
2013-05-10 23:39:00,63.2,60.2,29.90,WSW,246,1.0,2.0,90,0.13,,---,0.13,VWS V14.01,2013-05-11 03:39:00,
2013-05-10 23:44:00,63.1,60.1,29.90,West,259,1.0,3.0,90,0.15,,---,0.15,VWS V14.01,2013-05-11 03:44:00,
2013-05-10 23:49:00,63.0,60.0,29.90,SW,214,1.0,3.0,90,0.16,,---,0.16,VWS V14.01,2013-05-11 03:49:00,
2013-05-10 23:54:00,63.0,60.3,29.90,WSW,244,0.0,3.0,91,0.17,,---,0.17,VWS V14.01,2013-05-11 03:54:00,
2013-05-10 23:59:00,62.9,60.2,29.89,West,276,1.0,3.0,91,0.18,,---,0.18,VWS V14.01,2013-05-11 03:59:00,